Location: Leuk
(46.3174°N, 7.6341°E)
Time: 15:39:43
(UTC+00:00)

Geosat - Pass Details

Date: 09 March 2021
Orbit: 763 x 765 km, 108.0° (Epoch: 14 April)

Event Time Altitude Azimuth Distance (km) Brightness Sun altitude
Rises 03:47:09 0° 30° (NNE) 3,242 8.0 -22.4°
Reaches altitude 10° 03:49:28 10° 34° (NE) 2,312 7.2 -22.0°
Maximum altitude 03:54:28 63° 116° (ESE) 856 4.4 -21.2°
Enters shadow 03:58:06 19° 193° (SSW) 1,780 5.6 -20.6°
